Location: Shenandoah County Park
(38.9356°N, 78.4524°W)
Time: 23:16:39
(UTC-04:00)

CAS-4B - Visible Passes

Search period start: 28 March 2023 00:00
Search period end: 07 April 2023 00:00
Orbit: 510 x 526 km, 43.0° (Epoch: 29 March)

Date Brightness Start Highest point End Pass type
(mag) Time Alt. Az. Time Alt. Az. Time Alt. Az.
28 Mar ? 05:25:47 33° S 05:26:48 40° SSE 05:30:35 10° E visible
29 Mar ? 05:10:22 46° SSE 05:10:32 46° SSE 05:14:24 10° ENE visible
30 Mar ? 04:54:51 48° ESE 04:54:51 48° ESE 04:58:10 10° ENE visible
30 Mar ? 06:30:06 10° W 06:34:02 54° N 06:37:59 10° ENE visible
31 Mar ? 04:39:15 38° E 04:39:15 38° E 04:41:54 10° ENE visible
31 Mar ? 06:14:13 12° W 06:17:46 51° N 06:21:42 10° ENE visible
01 Apr ? 04:23:35 28° ENE 04:23:35 28° ENE 04:25:35 10° ENE visible
01 Apr ? 05:58:32 16° W 06:01:29 49° N 06:05:24 10° ENE visible
02 Apr ? 04:07:52 21° ENE 04:07:52 21° ENE 04:09:15 10° ENE visible
02 Apr ? 05:42:49 21° WNW 05:45:10 47° N 05:49:03 10° ENE visible
03 Apr ? 03:52:06 15° ENE 03:52:06 15° ENE 03:52:52 10° ENE visible
03 Apr ? 05:27:03 27° WNW 05:28:49 46° N 05:32:42 10° ENE visible
04 Apr ? 03:36:19 11° ENE 03:36:19 11° ENE 03:36:27 10° ENE visible
04 Apr ? 05:11:16 34° NW 05:12:27 45° N 05:16:18 10° ENE visible
05 Apr ? 04:55:28 41° NNW 04:56:02 45° N 04:59:52 10° ENE visible
06 Apr ? 04:39:40 45° N 04:39:40 45° N 04:43:26 10° ENE visible
06 Apr ? 06:15:36 10° WNW 06:19:37 77° NNE 06:23:37 10° ESE visible
